Showing default

SPACEMOBILE-001, 61047

Orbit data source: Space-Track

SPACEMOBILE-001, 61047 is a payload satellite owned by AST & Science (US) in LEO that was launched on Thu, 12 Sep 2024 UTC via an FALCON 9 launch vehicle from the Air Force Eastern Test Range (AFETR). Payload-class satellites include a variety of spacecraft equipped with specific instruments for various scientific and technological missions. These include communications satellites like Starlink; space stations such as the ISS; scientific satellites like the Hubble; Earth observation satellites from companies like Planet Labs, Umbra, and HawkEye 360; GPS; miniature CubeSats for education and research; and military/defense satellites.

Loading next visibility...
Identifier
61047, 2024-163C
Orbit
LEO
Country
Flag of USUS
Related business
Manufacturer
AST & Science
Mission
Operational Commercial Communications
Bus & Motor
BW3, Unknown motor
Mass
1,500 kg wet, 1,500 kg dry
Launch date (UTC)
2024-09-12 (1 year ago)
Launch vehicle
FALCON 9
Launch site
Air Force Eastern Test Range (AFETR)
Object type
Payload
Rocket body
Debris
Shape & HBR
Box + 1 Plate, 6.5 m
Radar Cross Section
32.590 m², Large (>1 m²)

Expand to show TLE details & history
Last TLE update: 11 hours ago

TLE from 11 hours ago
0 SPACEMOBILE-001
1 61047U 24163C   25310.57841037  .00008255  00000-0  38178-3 0  9990
2 61047  52.9675 253.1305 0009793 166.2661 193.8601 15.20964819 63887
Epoch: 2025-11-06T13:52Z
TLE epoch observation values (Epoch: 2025-11-06T13:52:54.655Z)
Latitude
-0.00008°
Longitude
-1.132°
Altitude
510.347 km
Speed
7.606 km/s
True Right ascension
16h 52m 31s
True Declination
0° 00' 00"
Sunlit
Object was in daylight at epoch
Visualization orbit readout
Latitude
Unknown
Longitude
Unknown
Altitude
Unknown
Speed
Unknown
Apparent Right ascension
Unknown
Apparent Declination
Unknown
Sunlit
N/A
Visualization observer readout
Local Sidereal Time
21:24:53
Azimuth
Unknown
Elevation
Unknown
Doppler factor
Unknown
Orbital elements
Apogee altitude
509.954 km
Perigee altitude
496.477 km
Semi-major axis
6,881.353 km
Eccentricity
0.00098
Inclination
52.9675°
RAAN
253.1305°
Arg. of periapsis
166.2661°
True anomaly
193.83325°
Mean anomaly
193.8601°
Eccentric anomaly
193.84667°
Mean motion
3.80218 °/min
Orbital period
94.68 mins
BSTAR
0.00038178
Loading maneuver chart data...
Computing Atmospheric mass density...
Loading historical data...
Loading historical data...
Loading historical data...
Loading historical data...
Loading historical data...
Loading historical data...
Loading historical data...

Documentation

Showing up to 5 results
|